Ketchikan, AK

4:42 PM AKST on November 15, 2018 (GMT -0900)
Ketchikan International

Weather History for PAKT - December, 2017

Change the Weather History Date:

Thursday, December 14, 2017

  Actual Average Record
Temperature  
Mean Temperature 44 °F -  
Max Temperature 48 °F 40 °F 58 °F (1962)
Min Temperature 41 °F 31 °F 8 °F (1964)
Degree Days  
Heating Degree Days 20    
Moisture  
Dew Point 43 °F    
Average Humidity 91    
Maximum Humidity 100    
Minimum Humidity 80    
Precipitation  
Precipitation 0.61 in - - ()
Sea Level Pressure  
Sea Level Pressure 30.08 in    
Wind  
Wind Speed 15 mph (SSE)    
Max Wind Speed 23 mph    
Max Gust Speed 34 mph    
Visibility 7 miles    
Events Rain    
Averages and records for this station are not official NWS values.
T = Trace of Precipitation, MM = Missing Value Source: NWS Daily Summary

Daily Weather History Graph

Daily Weather History Graph

Search for Another Location

Airport or City:

Astronomy

Dec. 14, 2017 Rise Set
Actual Time 8:07 AM AKST 3:15 PM AKST
Civil Twilight 7:21 AM AKST 4:02 PM AKST
Nautical Twilight 6:33 AM AKST 4:50 PM AKST
Astronomical Twilight 5:48 AM AKST 5:34 PM AKST
Moon 4:00 AM AKST (12/14) 2:03 PM AKST (12/14)
Length of Visible Light 8h 40m
Length of Day
7h 08m
Waning Crescent, 10% of the Moon is Illuminated
Dec 14
Waning Crescent
Dec 17
New
Dec 26
First Quarter
Jan 1
Full
Jan 8
Last Quarter

Hourly Weather History & Observations

Time (AKST) Temp. Windchill Dew Point Humidity Pressure Visibility Wind Dir Wind Speed Gust Speed Precip Events Conditions
12:53 AM 48.9 °F - 43.0 °F 80% 30.08 in 10.0 mi SSE 19.6 mph 29.9 mph 0.00 in Rain Light Rain
1:53 AM 48.9 °F - 44.1 °F 83% 30.09 in 10.0 mi SSE 15.0 mph - 0.02 in Rain Light Rain
2:53 AM 48.9 °F - 44.1 °F 83% 30.06 in 6.0 mi SSE 18.4 mph 27.6 mph 0.09 in Rain Rain
3:53 AM 48.0 °F - 44.1 °F 86% 30.04 in 7.0 mi SSE 15.0 mph - 0.17 in Rain Rain
4:53 AM 48.0 °F - 44.1 °F 86% 30.05 in 5.0 mi SE 18.4 mph 26.5 mph 0.15 in Rain Light Rain
5:06 AM 46.9 °F - 44.1 °F 90% 30.05 in 2.5 mi SE 23.0 mph 31.1 mph 0.06 in Rain Rain
5:15 AM 46.9 °F - 44.1 °F 90% 30.04 in 3.0 mi SE 19.6 mph 34.5 mph 0.08 in Rain Rain
5:53 AM 46.0 °F 38.3 °F 44.1 °F 93% 30.06 in 5.0 mi SE 20.7 mph 28.8 mph 0.17 in Rain Light Rain
6:14 AM 46.4 °F 40.1 °F 44.6 °F 93% 30.03 in 7.0 mi SE 15.0 mph 27.6 mph N/A Rain Light Rain
6:53 AM 46.4 °F 39.8 °F 44.6 °F 93% 30.04 in 3.0 mi SE 16.1 mph 25.3 mph N/A Rain Light Rain
7:53 AM 46.4 °F 38.5 °F 44.6 °F 93% 30.05 in 3.0 mi SE 21.9 mph 34.5 mph N/A Rain Rain
8:53 AM 46.4 °F 39.0 °F 44.6 °F 93% 30.06 in 3.0 mi SE 19.6 mph - N/A Rain Light Rain
8:55 AM 46.9 °F - 45.0 °F 93% 30.05 in 3.0 mi SE 17.3 mph 26.5 mph 0.00 in Rain Light Rain
8:57 AM 46.9 °F - 45.0 °F 93% 30.05 in 3.0 mi SE 18.4 mph 25.3 mph 0.00 in Rain Light Rain
9:53 AM 46.4 °F 38.7 °F 44.6 °F 93% 30.06 in 3.0 mi SE 20.7 mph 32.2 mph N/A Rain Light Rain
10:53 AM 46.4 °F 40.7 °F 46.4 °F 100% 30.07 in 3.0 mi SE 12.7 mph - N/A   Overcast
11:53 AM 46.4 °F 42.4 °F 46.4 °F 100% 30.06 in 10.0 mi SE 8.1 mph - N/A   Mostly Cloudy
12:53 PM 46.4 °F 41.1 °F 44.6 °F 93% 30.07 in 6.0 mi SE 11.5 mph - N/A Rain Light Rain
1:53 PM 46.9 °F - 44.1 °F 90% 30.07 in 10.0 mi SE 3.5 mph - 0.00 in   Mostly Cloudy
2:53 PM 46.0 °F 42.5 °F 43.0 °F 89% 30.08 in 10.0 mi SSE 6.9 mph - N/A   Mostly Cloudy
3:53 PM 44.1 °F 41.5 °F 42.1 °F 93% 30.10 in 10.0 mi SSE 4.6 mph - N/A   Overcast
4:53 PM 44.1 °F 40.1 °F 42.1 °F 93% 30.10 in 10.0 mi SE 6.9 mph - N/A   Mostly Cloudy
5:53 PM 44.1 °F 42.5 °F 41.0 °F 89% 30.11 in 10.0 mi SE 3.5 mph - N/A   Overcast
6:53 PM 43.0 °F 41.3 °F 39.9 °F 89% 30.11 in 10.0 mi South 3.5 mph - N/A   Overcast
7:53 PM 43.0 °F 40.3 °F 39.9 °F 89% 30.11 in 10.0 mi SE 4.6 mph - N/A   Overcast
8:53 PM 43.0 °F 40.3 °F 39.9 °F 89% 30.11 in 10.0 mi South 4.6 mph - N/A   Overcast
9:24 PM 41.0 °F 39.0 °F 39.9 °F 96% 30.11 in 10.0 mi SSW 3.5 mph - 0.00 in   Mostly Cloudy
9:34 PM 41.0 °F 37.1 °F 39.0 °F 93% 30.11 in 10.0 mi SSE 5.8 mph - 0.00 in   Scattered Clouds
9:53 PM 41.0 °F 35.8 °F 39.0 °F 93% 30.11 in 10.0 mi SSE 8.1 mph - 0.00 in   Partly Cloudy
10:53 PM 41.0 °F 37.1 °F 39.0 °F 93% 30.12 in 10.0 mi South 5.8 mph - 0.00 in Rain Light Rain
11:53 PM 42.1 °F 38.4 °F 39.9 °F 92% 30.11 in 10.0 mi South 5.8 mph - 0.01 in   Overcast